Flag for U.S.A. Weather past 2 weeks in Billings, Montana, U.S.A.

Now
76 °F

Passing clouds.


Feels Like: 78 °F
Forecast: 60 / 90 °F
Wind: 5 mph from South

Location: Billings Logan International Airport

Current Time: Jul 29, 2014 at 11:51:47 PM

Latest Report: Jul 29, 2014 at 10:53 PM


Visibility: 10 mi

Pressure: 30.10 "Hg

Humidity: 37%

Dew point: 48 °F

Location of BillingsLocation

Historic Weather in Billings — Graph

°F

Billings temperature yesterday

Maximum temperature yesterday: 92 °F (at 3:53 PM)
Minimum temperature yesterday: 62 °F (at 4:53 AM)
Average temperature yesterday: 76 °F

Past Weeks' High & Low Weather Summary

 TemperatureHumidityPressure
High99 °F (Jul 24, 2:53 PM)90% (Jul 23, 6:53 AM)30.25 "Hg (Jul 23, 6:53 AM)
Low53 °F (Jul 27, 5:53 AM)9% (Jul 24, 3:53 PM)29.62 "Hg (Jul 24, 2:53 PM)
Average74 °F41%29.93 "Hg
* Reported Jul 14 9:53 PM — Jul 29 9:53 PM, Billings, Weather by CustomWeather, © 2014

Note: Actual official high and low records may vary slightly from our data, if they occured in-between our weather recording intervals... More about our weather records

Advertising

Billings weather history for previous 24 hours

 ConditionsComfort  
Time TempWeatherWind HumidityBarometerVisibility
9:53 PM
Jul 29
79 °FPassing clouds.6 mph31%30.09 "Hg10 mi
8:53 PM81 °FScattered clouds.6 mph30%30.07 "Hg10 mi
7:53 PM84 °FScattered clouds.10 mph27%30.06 "Hg10 mi
6:53 PM86 °FScattered clouds.13 mph25%30.04 "Hg10 mi
5:53 PM88 °FScattered clouds.15 mph24%30.04 "Hg10 mi
4:53 PM89 °FScattered clouds.14 mph22%30.05 "Hg10 mi
3:53 PM87 °FScattered clouds.6 mph24%30.06 "Hg10 mi
2:53 PM87 °FScattered clouds.12 mph25%30.06 "Hg10 mi
1:53 PM87 °FScattered clouds.8 mph28%30.06 "Hg10 mi
12:53 PM87 °FScattered clouds.9 mph29%30.08 "Hg10 mi
11:53 AM82 °FScattered clouds.9 mph35%30.10 "Hg10 mi
10:53 AM78 °FScattered clouds.5 mph40%30.11 "Hg10 mi
9:53 AM75 °FScattered clouds.7 mph45%30.12 "Hg10 mi
8:53 AM70 °FBroken clouds.10 mph51%30.13 "Hg10 mi
7:53 AM68 °FBroken clouds.10 mph49%30.12 "Hg10 mi
6:53 AM67 °FScattered clouds.12 mph47%30.11 "Hg10 mi
5:53 AM67 °FPassing clouds.9 mph44%30.09 "Hg10 mi
4:53 AM66 °FPassing clouds.9 mph45%30.08 "Hg10 mi
3:53 AM68 °FPassing clouds.5 mph44%30.07 "Hg10 mi
2:53 AM70 °FPassing clouds.No wind41%30.08 "Hg10 mi
1:53 AM72 °FPassing clouds.5 mph38%30.07 "Hg10 mi
12:53 AM73 °FPassing clouds.5 mph38%30.09 "Hg10 mi
11:53 PM
Jul 28
76 °FPassing clouds.9 mph33%30.09 "Hg10 mi
Weather by CustomWeather, © 2014

See weather overviewHow to use our weather pages